﻿測定場所 (Monitoring sites),日付 (Measurement date),時間 (Measurement time),線量率 最大値 (max) μGy/h,線量率 最小値 (min) μGy/h,線量率 平均値 (average) μGy/h,
江戸川 (Edogawa),2014-10-12,23:01～24:00,0.0731,0.0663,0.0701,
江戸川 (Edogawa),2014-10-12,22:01～23:00,0.0735,0.0674,0.0705,
江戸川 (Edogawa),2014-10-12,21:01～22:00,0.0739,0.0670,0.0704,
江戸川 (Edogawa),2014-10-12,20:01～21:00,0.0740,0.0665,0.0702,
江戸川 (Edogawa),2014-10-12,19:01～20:00,0.0737,0.0669,0.0702,
江戸川 (Edogawa),2014-10-12,18:01～19:00,0.0740,0.0670,0.0702,
江戸川 (Edogawa),2014-10-12,17:01～18:00,0.0742,0.0666,0.0706,
江戸川 (Edogawa),2014-10-12,16:01～17:00,0.0728,0.0662,0.0699,
江戸川 (Edogawa),2014-10-12,15:01～16:00,0.0736,0.0650,0.0697,
江戸川 (Edogawa),2014-10-12,14:01～15:00,0.0736,0.0672,0.0699,
江戸川 (Edogawa),2014-10-12,13:01～14:00,0.0719,0.0647,0.0695,
江戸川 (Edogawa),2014-10-12,12:01～13:00,0.0749,0.0666,0.0696,
江戸川 (Edogawa),2014-10-12,11:01～12:00,0.0727,0.0671,0.0704,
江戸川 (Edogawa),2014-10-12,10:01～11:00,0.0730,0.0667,0.0695,
江戸川 (Edogawa),2014-10-12,09:01～10:00,0.0740,0.0649,0.0702,
江戸川 (Edogawa),2014-10-12,08:01～09:00,0.0748,0.0666,0.0706,
江戸川 (Edogawa),2014-10-12,07:01～08:00,0.0766,0.0655,0.0706,
江戸川 (Edogawa),2014-10-12,06:01～07:00,0.0741,0.0669,0.0705,
江戸川 (Edogawa),2014-10-12,05:01～06:00,0.0745,0.0661,0.0705,
江戸川 (Edogawa),2014-10-12,04:01～05:00,0.0745,0.0663,0.0702,
江戸川 (Edogawa),2014-10-12,03:01～04:00,0.0728,0.0658,0.0697,
江戸川 (Edogawa),2014-10-12,02:01～03:00,0.0737,0.0672,0.0702,
江戸川 (Edogawa),2014-10-12,01:01～02:00,0.0737,0.0666,0.0705,
江戸川 (Edogawa),2014-10-12,00:01～01:00,0.0738,0.0673,0.0707,
江戸川 (Edogawa),2014-10-11,23:01～24:00,0.0734,0.0665,0.0700,
江戸川 (Edogawa),2014-10-11,22:01～23:00,0.0736,0.0663,0.0706,
江戸川 (Edogawa),2014-10-11,21:01～22:00,0.0729,0.0667,0.0699,
江戸川 (Edogawa),2014-10-11,20:01～21:00,0.0745,0.0656,0.0707,
江戸川 (Edogawa),2014-10-11,19:01～20:00,0.0729,0.0666,0.0701,
江戸川 (Edogawa),2014-10-11,18:01～19:00,0.0734,0.0669,0.0705,
江戸川 (Edogawa),2014-10-11,17:01～18:00,0.0734,0.0662,0.0706,
江戸川 (Edogawa),2014-10-11,16:01～17:00,0.0742,0.0665,0.0704,
江戸川 (Edogawa),2014-10-11,15:01～16:00,0.0733,0.0665,0.0704,
江戸川 (Edogawa),2014-10-11,14:01～15:00,0.0741,0.0679,0.0709,
江戸川 (Edogawa),2014-10-11,13:01～14:00,0.0737,0.0669,0.0705,
江戸川 (Edogawa),2014-10-11,12:01～13:00,0.0742,0.0673,0.0704,
江戸川 (Edogawa),2014-10-11,11:01～12:00,0.0739,0.0671,0.0707,
江戸川 (Edogawa),2014-10-11,10:01～11:00,0.0734,0.0676,0.0707,
江戸川 (Edogawa),2014-10-11,09:01～10:00,0.0738,0.0660,0.0703,
江戸川 (Edogawa),2014-10-11,08:01～09:00,0.0744,0.0676,0.0704,
江戸川 (Edogawa),2014-10-11,07:01～08:00,0.0745,0.0671,0.0708,
江戸川 (Edogawa),2014-10-11,06:01～07:00,0.0746,0.0680,0.0713,
江戸川 (Edogawa),2014-10-11,05:01～06:00,0.0741,0.0662,0.0705,
江戸川 (Edogawa),2014-10-11,04:01～05:00,0.0757,0.0677,0.0707,
江戸川 (Edogawa),2014-10-11,03:01～04:00,0.0729,0.0674,0.0705,
江戸川 (Edogawa),2014-10-11,02:01～03:00,0.0769,0.0674,0.0704,
江戸川 (Edogawa),2014-10-11,01:01～02:00,0.0745,0.0680,0.0706,
江戸川 (Edogawa),2014-10-11,00:01～01:00,0.0731,0.0671,0.0700,
江戸川 (Edogawa),2014-10-10,23:01～24:00,0.0733,0.0669,0.0698,
江戸川 (Edogawa),2014-10-10,22:01～23:00,0.0725,0.0659,0.0698,
江戸川 (Edogawa),2014-10-10,21:01～22:00,0.0727,0.0663,0.0697,
江戸川 (Edogawa),2014-10-10,20:01～21:00,0.0740,0.0648,0.0695,
江戸川 (Edogawa),2014-10-10,19:01～20:00,0.0736,0.0672,0.0697,
江戸川 (Edogawa),2014-10-10,18:01～19:00,0.0741,0.0665,0.0701,
江戸川 (Edogawa),2014-10-10,17:01～18:00,0.0732,0.0653,0.0696,
江戸川 (Edogawa),2014-10-10,16:01～17:00,0.0733,0.0657,0.0699,
江戸川 (Edogawa),2014-10-10,15:01～16:00,0.0733,0.0667,0.0699,
江戸川 (Edogawa),2014-10-10,14:01～15:00,0.0737,0.0657,0.0702,
江戸川 (Edogawa),2014-10-10,13:01～14:00,0.0726,0.0662,0.0697,
江戸川 (Edogawa),2014-10-10,12:01～13:00,0.0752,0.0660,0.0699,
江戸川 (Edogawa),2014-10-10,11:01～12:00,0.0737,0.0672,0.0697,
江戸川 (Edogawa),2014-10-10,10:01～11:00,0.0730,0.0657,0.0697,
江戸川 (Edogawa),2014-10-10,09:01～10:00,0.0739,0.0655,0.0695,
江戸川 (Edogawa),2014-10-10,08:01～09:00,0.0729,0.0675,0.0703,
江戸川 (Edogawa),2014-10-10,07:01～08:00,0.0747,0.0662,0.0702,
江戸川 (Edogawa),2014-10-10,06:01～07:00,0.0734,0.0648,0.0698,
江戸川 (Edogawa),2014-10-10,05:01～06:00,0.0731,0.0667,0.0698,
江戸川 (Edogawa),2014-10-10,04:01～05:00,0.0739,0.0676,0.0696,
江戸川 (Edogawa),2014-10-10,03:01～04:00,0.0735,0.0652,0.0697,
江戸川 (Edogawa),2014-10-10,02:01～03:00,0.0727,0.0667,0.0697,
江戸川 (Edogawa),2014-10-10,01:01～02:00,0.0726,0.0655,0.0698,
江戸川 (Edogawa),2014-10-10,00:01～01:00,0.0727,0.0663,0.0696,
江戸川 (Edogawa),2014-10-09,23:01～24:00,0.0731,0.0659,0.0695,
江戸川 (Edogawa),2014-10-09,22:01～23:00,0.0729,0.0666,0.0698,
江戸川 (Edogawa),2014-10-09,21:01～22:00,0.0739,0.0667,0.0699,
江戸川 (Edogawa),2014-10-09,20:01～21:00,0.0744,0.0666,0.0696,
江戸川 (Edogawa),2014-10-09,19:01～20:00,0.0730,0.0672,0.0700,
江戸川 (Edogawa),2014-10-09,18:01～19:00,0.0744,0.0659,0.0696,
江戸川 (Edogawa),2014-10-09,17:01～18:00,0.0725,0.0659,0.0695,
江戸川 (Edogawa),2014-10-09,16:01～17:00,0.0734,0.0650,0.0695,
江戸川 (Edogawa),2014-10-09,15:01～16:00,0.0737,0.0664,0.0697,
江戸川 (Edogawa),2014-10-09,14:01～15:00,0.0734,0.0663,0.0696,
江戸川 (Edogawa),2014-10-09,13:01～14:00,0.0726,0.0650,0.0693,
江戸川 (Edogawa),2014-10-09,12:01～13:00,0.0730,0.0652,0.0696,
江戸川 (Edogawa),2014-10-09,11:01～12:00,0.0733,0.0664,0.0697,
江戸川 (Edogawa),2014-10-09,10:01～11:00,0.0729,0.0664,0.0694,
江戸川 (Edogawa),2014-10-09,09:01～10:00,0.0730,0.0666,0.0697,
江戸川 (Edogawa),2014-10-09,08:01～09:00,0.0729,0.0663,0.0698,
江戸川 (Edogawa),2014-10-09,07:01～08:00,0.0729,0.0656,0.0697,
江戸川 (Edogawa),2014-10-09,06:01～07:00,0.0728,0.0655,0.0694,
江戸川 (Edogawa),2014-10-09,05:01～06:00,0.0733,0.0659,0.0695,
江戸川 (Edogawa),2014-10-09,04:01～05:00,0.0729,0.0657,0.0696,
江戸川 (Edogawa),2014-10-09,03:01～04:00,0.0732,0.0660,0.0695,
江戸川 (Edogawa),2014-10-09,02:01～03:00,0.0735,0.0659,0.0698,
江戸川 (Edogawa),2014-10-09,01:01～02:00,0.0733,0.0663,0.0692,
江戸川 (Edogawa),2014-10-09,00:01～01:00,0.0731,0.0648,0.0695,
江戸川 (Edogawa),2014-10-08,23:01～24:00,0.0726,0.0657,0.0693,
江戸川 (Edogawa),2014-10-08,22:01～23:00,0.0737,0.0665,0.0695,
江戸川 (Edogawa),2014-10-08,21:01～22:00,0.0741,0.0654,0.0695,
江戸川 (Edogawa),2014-10-08,20:01～21:00,0.0737,0.0659,0.0691,
江戸川 (Edogawa),2014-10-08,19:01～20:00,0.0733,0.0644,0.0693,
江戸川 (Edogawa),2014-10-08,18:01～19:00,0.0726,0.0652,0.0689,
江戸川 (Edogawa),2014-10-08,17:01～18:00,0.0721,0.0657,0.0692,
江戸川 (Edogawa),2014-10-08,16:01～17:00,0.0719,0.0655,0.0692,
江戸川 (Edogawa),2014-10-08,15:01～16:00,0.0728,0.0647,0.0693,
江戸川 (Edogawa),2014-10-08,14:01～15:00,0.0747,0.0647,0.0693,
江戸川 (Edogawa),2014-10-08,13:01～14:00,0.0727,0.0651,0.0691,
江戸川 (Edogawa),2014-10-08,12:01～13:00,0.0728,0.0656,0.0694,
江戸川 (Edogawa),2014-10-08,11:01～12:00,0.0730,0.0653,0.0689,
江戸川 (Edogawa),2014-10-08,10:01～11:00,0.0728,0.0659,0.0694,
江戸川 (Edogawa),2014-10-08,09:01～10:00,0.0730,0.0660,0.0695,
江戸川 (Edogawa),2014-10-08,08:01～09:00,0.0739,0.0652,0.0694,
江戸川 (Edogawa),2014-10-08,07:01～08:00,0.0727,0.0652,0.0692,
江戸川 (Edogawa),2014-10-08,06:01～07:00,0.0756,0.0658,0.0696,
江戸川 (Edogawa),2014-10-08,05:01～06:00,0.0722,0.0659,0.0687,
江戸川 (Edogawa),2014-10-08,04:01～05:00,0.0731,0.0667,0.0691,
江戸川 (Edogawa),2014-10-08,03:01～04:00,0.0719,0.0661,0.0689,
江戸川 (Edogawa),2014-10-08,02:01～03:00,0.0722,0.0651,0.0689,
江戸川 (Edogawa),2014-10-08,01:01～02:00,0.0716,0.0650,0.0687,
江戸川 (Edogawa),2014-10-08,00:01～01:00,0.0733,0.0646,0.0691,
江戸川 (Edogawa),2014-10-07,23:01～24:00,0.0727,0.0649,0.0689,
江戸川 (Edogawa),2014-10-07,22:01～23:00,0.0719,0.0654,0.0687,
江戸川 (Edogawa),2014-10-07,21:01～22:00,0.0715,0.0651,0.0690,
江戸川 (Edogawa),2014-10-07,20:01～21:00,0.0723,0.0651,0.0687,
江戸川 (Edogawa),2014-10-07,19:01～20:00,0.0737,0.0646,0.0690,
江戸川 (Edogawa),2014-10-07,18:01～19:00,0.0724,0.0656,0.0690,
江戸川 (Edogawa),2014-10-07,17:01～18:00,0.0732,0.0652,0.0690,
江戸川 (Edogawa),2014-10-07,16:01～17:00,0.0729,0.0661,0.0693,
江戸川 (Edogawa),2014-10-07,15:01～16:00,0.0722,0.0653,0.0685,
江戸川 (Edogawa),2014-10-07,14:01～15:00,0.0723,0.0653,0.0687,
江戸川 (Edogawa),2014-10-07,13:01～14:00,0.0732,0.0654,0.0687,
江戸川 (Edogawa),2014-10-07,12:01～13:00,0.0736,0.0645,0.0689,
江戸川 (Edogawa),2014-10-07,11:01～12:00,0.0725,0.0660,0.0687,
江戸川 (Edogawa),2014-10-07,10:01～11:00,0.0732,0.0653,0.0690,
江戸川 (Edogawa),2014-10-07,09:01～10:00,0.0730,0.0662,0.0688,
江戸川 (Edogawa),2014-10-07,08:01～09:00,0.0727,0.0642,0.0689,
江戸川 (Edogawa),2014-10-07,07:01～08:00,0.0713,0.0647,0.0687,
江戸川 (Edogawa),2014-10-07,06:01～07:00,0.0725,0.0663,0.0690,
江戸川 (Edogawa),2014-10-07,05:01～06:00,0.0716,0.0647,0.0683,
江戸川 (Edogawa),2014-10-07,04:01～05:00,0.0707,0.0646,0.0679,
江戸川 (Edogawa),2014-10-07,03:01～04:00,0.0720,0.0655,0.0685,
江戸川 (Edogawa),2014-10-07,02:01～03:00,0.0720,0.0657,0.0690,
江戸川 (Edogawa),2014-10-07,01:01～02:00,0.0734,0.0645,0.0685,
江戸川 (Edogawa),2014-10-07,00:01～01:00,0.0735,0.0651,0.0688,
江戸川 (Edogawa),2014-10-06,23:01～24:00,0.0728,0.0632,0.0686,
江戸川 (Edogawa),2014-10-06,22:01～23:00,0.0719,0.0658,0.0682,
江戸川 (Edogawa),2014-10-06,21:01～22:00,0.0714,0.0647,0.0684,
江戸川 (Edogawa),2014-10-06,20:01～21:00,0.0743,0.0649,0.0687,
江戸川 (Edogawa),2014-10-06,19:01～20:00,0.0725,0.0650,0.0684,
江戸川 (Edogawa),2014-10-06,18:01～19:00,0.0712,0.0645,0.0682,
江戸川 (Edogawa),2014-10-06,17:01～18:00,0.0707,0.0641,0.0680,
江戸川 (Edogawa),2014-10-06,16:01～17:00,0.0709,0.0632,0.0681,
江戸川 (Edogawa),2014-10-06,15:01～16:00,0.0719,0.0646,0.0684,
江戸川 (Edogawa),2014-10-06,14:01～15:00,0.0734,0.0656,0.0684,
江戸川 (Edogawa),2014-10-06,13:01～14:00,0.0743,0.0666,0.0703,
江戸川 (Edogawa),2014-10-06,12:01～13:00,0.0860,0.0684,0.0770,
江戸川 (Edogawa),2014-10-06,11:01～12:00,0.103,0.0827,0.0924,
江戸川 (Edogawa),2014-10-06,10:01～11:00,0.100,0.0760,0.0894,
江戸川 (Edogawa),2014-10-06,09:01～10:00,0.0810,0.0566,0.0681,
江戸川 (Edogawa),2014-10-06,08:01～09:00,0.0686,0.0603,0.0644,
江戸川 (Edogawa),2014-10-06,07:01～08:00,0.0723,0.0618,0.0672,
江戸川 (Edogawa),2014-10-06,06:01～07:00,0.0683,0.0587,0.0643,
江戸川 (Edogawa),2014-10-06,05:01～06:00,0.0731,0.0617,0.0688,
江戸川 (Edogawa),2014-10-06,04:01～05:00,0.0752,0.0673,0.0703,
江戸川 (Edogawa),2014-10-06,03:01～04:00,0.0811,0.0679,0.0723,
江戸川 (Edogawa),2014-10-06,02:01～03:00,0.0759,0.0688,0.0726,
江戸川 (Edogawa),2014-10-06,01:01～02:00,0.0769,0.0680,0.0718,
江戸川 (Edogawa),2014-10-06,00:01～01:00,0.0739,0.0672,0.0709,
